Manhattan, KS

10:51 AM CDT on July 21, 2017 (GMT -0500)
Manhattan Regional

Weather History for KMHK - May, 2014

Change the Weather History Date:

Saturday, May 17, 2014

  Actual Average Record
Temperature  
Mean Temperature 49 °F 64 °F  
Max Temperature 63 °F 76 °F 92 °F (2012)
Min Temperature 34 °F 52 °F 34 °F (2014)
Degree Days  
Heating Degree Days 16 4  
Month to date heating degree days 112 91  
Since 1 July heating degree days 5735 5272  
Cooling Degree Days 0 3  
Month to date cooling degree days 54 29  
Year to date cooling degree days 84 46  
Moisture  
Dew Point 38 °F    
Average Humidity 70    
Maximum Humidity 100    
Minimum Humidity 39    
Precipitation  
Precipitation 0.00 in 0.12 in 0.47 in (2001)
Month to date precipitation 0.70 2.16  
Year to date precipitation 4.40 8.88  
Sea Level Pressure  
Sea Level Pressure 30.18 in    
Wind  
Wind Speed 2 mph (ESE)    
Max Wind Speed 10 mph    
Max Gust Speed 14 mph    
Visibility 6 miles    
Events Fog    
T = Trace of Precipitation, MM = Missing Value Source: NWS Daily Summary

Daily Weather History Graph

Daily Weather History Graph

Search for Another Location

Airport or City:

Trip Planner

Search our weather history database for the weather conditions in past years. The results will help you decide how hot, cold, wet, or windy it might be!

Date:

Astronomy

May. 17, 2014 Rise Set
Actual Time 6:11 AM CDT 8:34 PM CDT
Civil Twilight 5:41 AM CDT 9:05 PM CDT
Nautical Twilight 5:04 AM CDT 9:42 PM CDT
Astronomical Twilight 4:22 AM CDT 10:24 PM CDT
Moon 11:36 PM CDT (5/17) 8:55 AM CDT (5/17)
Length of Visible Light 15h 23m
Length of Day
14h 23m
Waning Gibbous, 89% of the Moon is Illuminated
May 17
Waning Gibbous
May 21
Last Quarter
May 28
New
Jun 5
First Quarter
Jun 12
Full

Hourly Weather History & Observations

Time (CDT) Temp. Dew Point Humidity Pressure Visibility Wind Dir Wind Speed Gust Speed Precip Events Conditions
12:52 AM 43.0 °F 41.0 °F 93% 30.17 in 10.0 mi Calm Calm - N/A   Overcast
1:52 AM 41.0 °F 39.0 °F 93% 30.17 in 6.0 mi Calm Calm - N/A   Clear
2:52 AM 37.9 °F 37.0 °F 97% 30.17 in 9.0 mi Calm Calm - N/A   Clear
3:52 AM 37.9 °F 36.0 °F 93% 30.17 in 8.0 mi Calm Calm - N/A   Clear
4:52 AM 36.0 °F 36.0 °F 100% 30.19 in 4.0 mi Calm Calm - N/A   Clear
5:52 AM 35.1 °F 34.0 °F 96% 30.19 in 3.0 mi Calm Calm - N/A   Clear
6:02 AM 34.0 °F 33.1 °F 96% 30.17 in 2.5 mi Calm Calm - N/A   Partly Cloudy
6:09 AM 34.0 °F 34.0 °F 100% 30.17 in 1.2 mi Calm Calm - N/A   Mostly Cloudy
6:16 AM 35.1 °F 34.0 °F 96% 30.17 in 0.2 mi Calm Calm - N/A Fog Fog
6:52 AM 35.1 °F 35.1 °F 100% 30.19 in 0.2 mi Calm Calm - N/A Fog Fog
7:13 AM 36.0 °F 36.0 °F 100% 30.18 in 0.2 mi Calm Calm - N/A Fog Fog
7:27 AM 37.0 °F 37.0 °F 100% 30.18 in 0.2 mi Calm Calm - N/A Fog Fog
7:52 AM 37.9 °F 37.9 °F 100% 30.21 in 0.2 mi Calm Calm - N/A Fog Fog
8:52 AM 43.0 °F 42.1 °F 97% 30.21 in 0.2 mi Calm Calm - N/A Fog Fog
9:03 AM 43.0 °F 43.0 °F 100% 30.20 in 1.0 mi Calm Calm - N/A   Overcast
9:09 AM 44.1 °F 43.0 °F 96% 30.20 in 3.0 mi Calm Calm - N/A   Overcast
9:27 AM 46.0 °F 45.0 °F 96% 30.20 in 9.0 mi Calm Calm - N/A   Scattered Clouds
9:52 AM 50.0 °F 45.0 °F 83% 30.21 in 10.0 mi Calm Calm - N/A   Clear
10:52 AM 55.0 °F 41.0 °F 59% 30.21 in 10.0 mi Variable 4.6 mph - N/A   Clear
11:52 AM 57.9 °F 37.9 °F 47% 30.21 in 10.0 mi SSE 3.5 mph - N/A   Clear
12:52 PM 61.0 °F 37.0 °F 41% 30.19 in 10.0 mi SE 8.1 mph - N/A   Partly Cloudy
1:52 PM 61.0 °F 35.1 °F 38% 30.18 in 10.0 mi Calm Calm - N/A   Clear
2:52 PM 62.1 °F 37.0 °F 39% 30.16 in 10.0 mi East 3.5 mph - N/A   Scattered Clouds
3:52 PM 62.1 °F 37.0 °F 39% 30.15 in 10.0 mi SSW 4.6 mph - N/A   Scattered Clouds
4:52 PM 62.1 °F 37.0 °F 39% 30.14 in 10.0 mi NNE 4.6 mph - N/A   Clear
5:52 PM 62.1 °F 37.0 °F 39% 30.14 in 10.0 mi ESE 5.8 mph - N/A   Clear
6:52 PM 62.1 °F 37.9 °F 41% 30.13 in 10.0 mi Variable 3.5 mph - N/A   Clear
7:52 PM 61.0 °F 39.0 °F 44% 30.14 in 10.0 mi ESE 4.6 mph - N/A   Clear
8:52 PM 57.9 °F 39.9 °F 51% 30.14 in 10.0 mi SE 5.8 mph - N/A   Clear
9:52 PM 55.9 °F 42.1 °F 60% 30.15 in 10.0 mi Calm Calm - N/A   Clear
10:52 PM 53.1 °F 41.0 °F 64% 30.16 in 10.0 mi East 5.8 mph - N/A   Clear
11:52 PM 51.1 °F 41.0 °F 68% 30.17 in 10.0 mi Calm Calm - N/A   Clear